Weather in Oktyabr'skiy

Russia / Tula Oblast     53°57′43″N   37°59′10″E
temp.,
°C
wind,
m/s
gust,
m/s
humid.,
%
clouds,
%
prec.,
mm/h
press.,
hPa
HPBL,
m
11 april, sun
sun1100:00+3ssw33620 0.0 102739
03:00+2wsw33670 0.0 102823
06:00+2wsw22680 0.0 102911
09:00+7w12530 0.0 1030197
12:00+11n11420 0.0 1030824
15:00+12ne22374 0.0 10301081
18:00+12ene35445 0.0 1030322
21:00+8e34595 0.0 103148
12 april, mon
mon1200:00+6ene3769100 0.0 1032120
03:00+4ene41174100 0.0 1031220
06:00+3ne51365100 0.0 1031290
09:00+6ene61172100 0.0 1030384
12:00+9e6979100 0.0 1028517
15:00+12e5770100 0.0 1027608
18:00+12e4876100 0.0 1025350
21:00+10e41089100 0.0 1025173
13 april, tue
tue1300:00+9se4128587 0.0 1024188
03:00+8se4982100 0.0 1024134
06:00+8sse478798 0.0 102498
09:00+13sse477195 0.0 1023233
12:00+17sse685152 0.0 1022874
15:00+19sse7935100 0.0 10211565
18:00+16sse5951100 0.0 1021305
21:00+13se4106389 0.0 1021202
14 april, wed
wed1400:00+11sse496894 0.0 1020145
03:00+10sse3107592 0.0 1020157
06:00+10sse3107771 0.0 1020198
09:00+14sse5116517 0.0 1019555
12:00+17s6856100 0.0 10181251
15:00+17s575676 0.3 10181324
18:00+15s3667100 0.9 1018205
21:00+13s3576100 1.3 1018119
15 april, thu
thu1500:00+11ssw338499 0.0 101847
03:00+9sw2291100 0.0 101821
06:00+9wnw2294100 0.0 101725
09:00+12nw128491 0.0 1017252
12:00+13nnw1179100 1.1 101784
15:00+11n2389100 2.6 1016126
18:00+9nne5892100 2.3 1016393
21:00+6nne71191100 3.2 1016480